This is the latest recevied weather packets stored in our database for station/object N0NB. If no packets are shown the sender has not sent any weather packets the latest 10 day(s).
| Time | Temp. | Humidity | Pressure | Rain* | Wind** | Luminosity | Snow |
|---|---|---|---|---|---|---|---|
| 1777893616 | 7.78° C | 78% | 1000.8 hPa | 0 mm | - | 0 W/m² | - |
| 1777893016 | 7.78° C | 77% | 1000.9 hPa | 0 mm | - | 0 W/m² | - |
| 1777892416 | 7.78° C | 78% | 1000.9 hPa | 0 mm | - | 0 W/m² | - |
| 1777891815 | 7.78° C | 77% | 1001 hPa | 0 mm | - | 0 W/m² | - |
| 1777891215 | 8.33° C | 76% | 1001 hPa | 0 mm | - | 0 W/m² | - |
| 1777890616 | 8.89° C | 75% | 1000.9 hPa | 0 mm | - | 0 W/m² | - |
| 1777890015 | 8.89° C | 75% | 1001 hPa | 0 mm | - | 0 W/m² | - |
| 1777889415 | 8.89° C | 74% | 1001.1 hPa | 0 mm | - | 0 W/m² | - |
| 1777888815 | 8.89° C | 73% | 1001.5 hPa | 0 mm | - | 0 W/m² | - |
| 1777888215 | 8.89° C | 73% | 1001.4 hPa | 0 mm | - | 0 W/m² | - |
| 1777887615 | 8.89° C | 73% | 1001.6 hPa | 0 mm | - | 0 W/m² | - |
| 1777887015 | 8.89° C | 72% | 1001.9 hPa | 0 mm | - | 0 W/m² | - |
| 1777886415 | 9.44° C | 70% | 1001.8 hPa | 0 mm | - | 0 W/m² | - |
| 1777885817 | 10° C | 68% | 1001.8 hPa | 0 mm | - | 0 W/m² | - |
| 1777885217 | 10° C | 67% | 1001.8 hPa | 0 mm | - | 0 W/m² | - |
| 1777884617 | 10.56° C | 68% | 1002 hPa | 0 mm | - | 0 W/m² | - |
| 1777884017 | 10.56° C | 67% | 1002.3 hPa | 0 mm | - | 0 W/m² | - |
| 1777883417 | 10.56° C | 68% | 1002.6 hPa | 0 mm | - | 0 W/m² | - |
| 1777882817 | 10° C | 68% | 1002.7 hPa | 0 mm | - | 0 W/m² | - |
| 1777882217 | 10.56° C | 68% | 1002.8 hPa | 0 mm | - | 0 W/m² | - |
| 1777881617 | 10.56° C | 67% | 1003.2 hPa | 0 mm | - | 0 W/m² | - |
| 1777881017 | 11.11° C | 67% | 1003.4 hPa | 0 mm | - | 0 W/m² | - |
| 1777880417 | 11.11° C | 66% | 1003.6 hPa | 0 mm | - | 0 W/m² | - |
| 1777879817 | 10.56° C | 68% | 1003.8 hPa | 0 mm | - | 0 W/m² | - |
| 1777879217 | 10° C | 70% | 1003.9 hPa | 0 mm | - | 0 W/m² | - |
* Rain latest hour (hover to see other rain measurements)
** Current wind speed in m/s (hover to see current wind gust speed)